STARLINK-33644, 63414

Orbit data source: Space-Track

STARLINK-33644, 63414 is a payload satellite owned by SpaceX/Seattle (US) in LEO that was launched on Mon, 31 Mar 2025 UTC via an FALCON 9 launch vehicle from the Air Force Eastern Test Range (AFETR). Payload-class satellites include a variety of spacecraft equipped with specific instruments for various scientific and technological missions. These include communications satellites like Starlink; space stations such as the ISS; scientific satellites like the Hubble; Earth observation satellites from companies like Planet Labs, Umbra, and HawkEye 360; GPS; miniature CubeSats for education and research; and military/defense satellites.

Loading next visibility...
Identifier
63414, 2025-065R
Orbit
LEO
Country
Flag of USUS
Related business
Manufacturer
SpaceX/Seattle
Mission
Operational Commercial Communications
Bus & Motor
STARLINK V2MO, Unknown motor
Mass
575 kg wet, ~530 kg dry
Launch date (UTC)
2025-03-31 (1 year ago)
Launch vehicle
FALCON 9
Launch site
Air Force Eastern Test Range (AFETR)
Object type
Payload
Rocket body
Debris
Shape & HBR
Box + 2 Pan, 17.7 m
Radar Cross Section
36.964 m², Large (>1 m²)

Expand to show TLE details & history
Last TLE update: 9 hours ago

TLE from 9 hours ago
0 STARLINK-33644
1 63414U 25065R   26171.47354575  .00013835  00000-0  51108-3 0  9991
2 63414  42.9995 247.0537 0001531 267.1504  92.9173 15.27596719 68558
Epoch: 2026-06-20T11:21Z
TLE epoch observation values (Epoch: 2026-06-20T11:21:54.352Z)
Latitude
0.00001°
Longitude
167.88958°
Altitude
482.828 km
Speed
7.626 km/s
True Right ascension
16h 28m 12s
True Declination
0° 00' 00"
Sunlit
Object was in full shadow at epoch
Visualization orbit readout
Latitude
Unknown
Longitude
Unknown
Altitude
Unknown
Speed
Unknown
Apparent Right ascension
Unknown
Apparent Declination
Unknown
Sunlit
N/A
Visualization observer readout
Local Sidereal Time
07:18:27
Azimuth
Unknown
Elevation
Unknown
Doppler factor
Unknown
Orbital elements
Apogee altitude
485.995 km
Perigee altitude
483.894 km
Semi-major axis
6,863.081 km
Eccentricity
0.00015
Inclination
42.9995°
RAAN
247.0537°
Arg. of periapsis
267.1504°
True anomaly
92.93482°
Mean anomaly
92.9173°
Eccentric anomaly
92.92606°
Mean motion
3.81737 °/min
Orbital period
94.31 mins
BSTAR
0.00051108
Loading maneuver chart data...
Computing Atmospheric mass density...
Loading historical data...
Loading historical data...
Loading historical data...
Loading historical data...
Loading historical data...
Loading historical data...
Loading historical data...

Documentation

Showing up to 5 results
|